STARLINK-36113

Last updated on Fri Dec 19 2025 00:02:09 GMT+0000 (Coordinated Universal Time)

1 66982U 25288Z 25352.58336806 -.01525950 00000+0 -66672-2 0 9999 2 66982 43.0013 131.2933 0001480 270.7789 345.1802 15.86367696 2775
UTC large
Height (km)
Speed (km/s)
/
Latitude / Longitude
Inclination (degrees)
Orbital Period (minutes)
Azimuth
Elevation
Range (km)
Doppler Factor

Next 0 passes for location: London (51.5072 / 0.1276)

Sorry there are no passes over London.